Flag for U.S.A. Weather past 2 weeks in Fayetteville, North Carolina, U.S.A.

64 °F

Light rain. Fog.

Feels Like: 64 °F
Forecast: 59 / 69 °F
Wind: 12 mph from Northeast

Location: Fayetteville Regional Airport

Current Time: Oct 10, 2015 at 4:46:46 PM

Latest Report: Oct 10, 2015 at 3:53 PM

Visibility: 5 mi

Pressure: 29.95 "Hg

Humidity: 94%

Dew point: 62 °F

Location of FayettevilleLocation

Historic Weather in Fayetteville — Graph


Fayetteville temperature yesterday

Maximum temperature yesterday: 81 °F (at 1:53 PM)
Minimum temperature yesterday: 61 °F (at 5:53 AM)
Average temperature yesterday: 71 °F

Past Weeks' High & Low Weather Summary

High86 °F (Sep 29, 1:53 PM)97% (Sep 25, 6:53 PM)30.14 "Hg (Sep 25, 6:53 PM)
Low55 °F (Oct 7, 6:53 AM)44% (Oct 8, 3:53 PM)29.71 "Hg (Oct 4, 3:53 AM)
Average69 °F87%29.93 "Hg
* Reported Sep 25 2:53 PM — Oct 10 2:53 PM, Fayetteville, Weather by CustomWeather, © 2015

Note: Actual official high and low records may vary slightly from our data, if they occured in-between our weather recording intervals... More about our weather records


Fayetteville weather history for previous 24 hours

Time TempWeatherWind HumidityBarometerVisibility
2:53 PM
Sat, Oct 10
64 °FLow clouds.10 mph94%29.96 "Hg8 mi
1:53 PM64 °FLow clouds.13 mph94%29.96 "Hg7 mi
12:53 PM65 °FLight rain. Fog.9 mph94%29.98 "Hg4 mi
11:53 AM65 °FLight rain. Fog.9 mph94%30.00 "Hg4 mi
10:59 AM65 °FHeavy rain. Fog.5 mph94%30.04 "Hg1 mi
9:53 AM67 °FScattered clouds.6 mph90%30.00 "Hg10 mi
8:53 AM67 °FPartly sunny.9 mph90%29.98 "Hg10 mi
7:53 AM68 °FLight rain. Fog.7 mph93%29.96 "Hg4 mi
7:04 AM67 °FLight rain. Fog.No wind97%29.96 "Hg4 mi
6:53 AM67 °FFog.3 mph97%29.94 "Hg5 mi
5:53 AM66 °FLight rain. Fog.5 mph96%29.95 "Hg4 mi
4:53 AM66 °FPassing clouds.5 mph93%29.94 "Hg7 mi
3:53 AM67 °FClear.No wind93%29.94 "Hg8 mi
2:53 AM69 °FClear.No wind87%29.95 "Hg10 mi
1:53 AM68 °FPassing clouds.5 mph90%29.96 "Hg8 mi
12:53 AM69 °FPassing clouds.3 mph87%29.97 "Hg10 mi
11:53 PM
Fri, Oct 9
68 °FPassing clouds.5 mph90%29.98 "Hg9 mi
10:53 PM69 °FClear.3 mph87%29.97 "Hg10 mi
9:53 PM70 °FPassing clouds.6 mph84%29.97 "Hg10 mi
8:53 PM70 °FClear.6 mph84%29.97 "Hg10 mi
7:53 PM73 °FClear.6 mph76%29.96 "Hg10 mi
6:53 PM74 °FSunny.5 mph74%29.96 "Hg10 mi
5:53 PM78 °FSunny.7 mph64%29.95 "Hg10 mi
4:53 PM78 °FSunny.10 mph62%29.97 "Hg10 mi
Weather by CustomWeather, © 2015

See weather overviewHow to use our weather pages